Wind_Speed
9 9 10 10 10 11 10 10 9 9 10 8 9 8 14 15 15 14 16 6 5 3 9 10 9 6 8 8 4 3 18 24 14 15 14 10 9 10 10 8 8 9 8 8 11
12 11 10 9 9 10 9 8 8 8 8 9 7 9 10 14 18 18 13 10 9 6 5 11 15 8 9 9 4 9 19 18 15 16 18 15 11 7 12 9 7 5 7 10 9
14 14 13 12 11 10 10 10 10 8 8 8 8 8 10 11 16 19 18 12 11 12 12 17 16 6 8 10 6 14 13 12 16 15 13 15 13 11 13 9 6 4 4 6 7
18 17 16 15 13 12 12 10 9 8 7 7 6 9 11 8 11 14 20 16 15 12 10 7 11 9 10 16 12 10 11 12 19 14 17 15 16 14 13 12 10 7 3 4 7
20 20 20 19 17 17 15 14 11 9 7 7 6 8 11 10 7 9 13 20 17 13 10 8 9 12 12 20 15 11 8 15 14 15 15 13 16 18 16 15 15 11 4 5 8
25 24 22 22 22 22 21 18 15 14 11 10 7 9 12 6 9 7 10 14 20 16 11 10 11 17 19 21 19 18 13 13 13 15 16 15 10 14 15 13 16 13 6 5 10
25 25 25 25 25 26 27 23 20 20 17 15 13 12 15 3 12 8 5 12 14 18 15 14 21 16 19 22 24 21 16 10 7 11 18 15 11 9 13 11 15 11 10 7 9
23 24 25 25 26 27 28 25 23 22 22 20 18 17 21 9 15 12 7 8 13 16 19 19 22 22 23 24 27 21 14 11 13 10 13 11 9 7 6 12 9 11 9 7 6
30 30 30 29 28 28 28 29 25 23 23 22 21 21 24 19 15 18 15 10 10 13 19 22 21 20 23 23 25 25 16 13 17 12 13 6 8 8 4 9 11 9 7 7 6
35 36 35 33 32 31 30 31 28 25 24 24 22 24 25 24 19 20 21 15 13 15 14 18 22 21 20 22 15 20 17 18 14 16 12 9 14 9 4 6 14 10 7 7 9
42 42 43 42 39 36 35 33 33 30 24 26 23 24 25 26 24 25 25 21 18 13 11 12 15 16 19 15 18 23 23 21 16 17 10 11 7 13 11 9 13 10 8 7 10
45 45 45 48 47 44 42 40 37 36 30 28 28 22 29 29 27 23 26 25 21 16 18 11 3 10 20 20 22 26 28 23 19 18 16 16 14 14 10 13 13 15 10 9 10
49 49 49 49 51 51 48 47 44 43 41 31 33 30 31 36 28 27 27 26 25 25 21 16 10 15 15 22 24 26 24 26 23 26 26 25 18 16 10 14 15 18 18 15 12
53 54 52 51 53 52 52 50 50 49 46 41 40 40 37 38 33 30 29 29 28 23 26 23 20 18 17 19 25 25 23 27 29 31 29 26 25 24 17 17 15 18 21 20 17
59 59 57 55 53 56 57 55 53 53 51 49 44 45 43 44 37 34 31 34 29 25 30 19 20 19 18 11 21 20 28 26 30 33 34 32 29 22 23 22 18 17 22 22 19
59 62 61 60 59 57 58 60 60 57 57 55 50 44 43 41 42 39 40 38 35 37 35 31 29 31 24 22 20 22 31 34 35 37 43 32 26 25 21 10 26 23 22 24 23
64 62 62 63 61 61 61 60 62 63 59 58 58 54 48 43 41 40 41 41 40 42 41 33 32 30 29 28 25 26 33 40 45 47 34 31 34 17 16 19 23 25 23 19 19
65 68 67 64 64 63 62 64 65 66 66 64 62 60 52 49 49 43 40 45 44 44 39 35 37 32 27 26 24 26 32 38 36 29 24 39 30 11 19 22 22 20 22 23 23
71 70 68 66 67 66 67 66 66 67 69 67 66 65 63 54 51 48 49 46 44 44 43 44 42 36 35 32 32 31 39 28 39 42 35 35 21 22 22 27 30 27 27 28 23
76 76 74 74 72 69 69 69 70 71 71 72 69 68 68 64 56 55 55 53 53 51 49 50 48 41 37 39 41 40 32 38 43 42 38 29 25 18 20 27 27 26 22 26 24
69 72 73 73 73 74 71 71 70 74 76 75 76 72 70 69 64 61 62 59 57 56 56 53 52 48 45 49 43 42 43 43 39 40 38 34 24 17 12 22 32 26 28 29 28
52 53 56 59 63 65 67 70 71 68 75 78 79 80 76 74 72 67 66 66 64 62 60 59 60 54 51 48 43 44 42 44 46 41 34 34 27 20 15 19 28 30 36 31 31
44 40 41 40 44 46 52 54 61 63 69 77 81 84 82 79 77 75 72 71 70 68 68 66 64 60 57 57 57 56 52 51 48 44 44 41 29 25 18 14 26 36 37 33 30
42 36 31 29 29 28 28 37 47 55 63 71 79 83 85 85 83 81 76 76 75 74 72 71 69 65 64 59 60 60 59 55 52 53 43 41 33 24 18 19 20 32 40 41 40
36 31 25 23 23 23 19 24 34 42 48 59 70 78 83 85 87 85 82 80 79 78 78 76 74 72 70 64 63 61 61 59 58 53 54 43 38 29 20 20 21 26 35 44 44
34 30 22 20 21 20 20 19 18 24 30 42 46 65 76 79 84 85 86 83 83 82 82 82 79 77 74 72 68 65 62 60 61 58 56 49 45 36 27 27 29 30 31 32 39
29 28 26 20 19 19 20 17 15 18 20 18 42 45 54 68 78 83 86 86 87 87 87 87 86 82 80 76 73 71 63 62 62 60 57 54 47 38 30 30 31 33 37 34 30
Wind_Direction
294 297 295 299 298 297 300 301 299 305 322 318 283 264 247 246 241 238 238 266 336 330 243 233 234 239 190 190 221 102 99 112 123 105 99 103 118 116 108 117 127 141 165 154 164
281 287 287 291 288 285 292 296 302 289 293 316 318 276 264 244 241 245 251 250 247 240 221 230 235 218 194 190 246 142 134 113 125 93 77 88 100 110 102 100 120 144 182 175 186
280 276 277 280 281 280 279 282 282 285 269 286 295 304 277 263 246 245 250 238 239 222 224 219 218 197 208 195 165 154 149 143 139 116 92 87 63 95 102 102 105 104 155 162 188
271 270 268 269 269 271 270 272 270 268 268 269 280 281 290 290 268 256 249 240 243 245 233 225 231 184 201 205 194 165 157 161 153 142 114 102 82 58 78 84 87 58 48 138 172
267 265 263 261 262 265 267 263 261 264 261 260 257 263 284 296 293 273 259 248 240 246 228 204 201 190 188 207 196 183 188 157 149 132 116 114 110 86 66 68 53 52 55 156 142
272 269 265 261 261 261 261 260 256 256 251 245 242 250 266 301 287 281 257 255 247 238 232 212 208 200 192 207 203 196 192 192 136 147 132 124 113 107 88 65 50 50 74 150 137
273 272 270 267 265 264 260 259 258 253 251 246 237 245 261 268 276 275 271 252 246 241 233 209 215 209 195 201 203 208 194 222 227 159 125 111 104 101 107 85 52 67 83 129 146
274 275 274 272 270 266 265 261 256 254 252 251 246 243 260 238 267 279 284 274 258 242 232 223 218 209 201 203 208 209 200 220 226 172 147 112 70 84 127 94 56 73 85 126 162
273 273 273 271 269 267 268 265 259 254 252 250 248 243 251 253 248 268 260 251 264 264 247 233 232 220 216 210 209 203 199 206 227 231 272 227 138 114 143 127 86 71 102 126 162
273 272 270 268 268 267 264 265 264 257 255 251 244 244 246 253 246 248 264 259 249 252 261 256 243 234 225 225 222 200 203 214 218 246 266 236 162 148 131 164 109 95 111 136 157
276 273 272 271 268 264 263 260 261 258 255 254 249 246 245 251 248 246 250 254 251 261 274 266 253 243 236 232 212 206 208 215 225 232 247 224 190 175 155 175 133 99 129 141 140
270 269 270 271 270 265 263 260 258 257 250 251 254 245 250 244 250 247 252 256 253 259 251 256 24 268 237 222 212 214 213 216 226 249 241 238 228 213 165 171 166 153 154 163 151
271 267 265 265 266 267 264 261 257 253 252 242 250 240 249 251 241 245 246 247 246 246 248 248 244 244 236 226 219 215 215 214 224 239 245 245 233 211 222 200 174 165 163 166 173
271 268 266 263 263 264 264 263 261 258 254 249 241 248 246 249 249 248 242 242 243 244 245 237 237 243 235 225 226 217 210 213 221 237 244 245 230 210 226 220 187 186 168 166 171
275 269 265 262 260 261 260 259 259 259 259 257 248 244 244 249 247 242 239 238 236 236 243 246 241 244 249 257 237 224 225 222 229 240 248 248 242 197 213 213 198 202 178 166 170
278 274 268 265 262 258 256 257 255 255 255 256 255 247 246 242 244 241 243 238 231 229 232 226 225 227 224 220 222 224 228 225 227 235 247 247 249 204 205 213 221 200 190 172 169
271 271 271 267 263 262 258 254 253 251 252 251 253 252 246 247 241 240 236 239 236 238 238 230 234 237 229 229 223 215 216 222 227 230 257 243 249 182 194 191 193 177 182 175 176
273 266 263 263 263 259 256 255 251 249 247 248 250 252 247 245 244 240 236 236 232 232 228 230 234 237 236 235 239 239 238 235 241 258 264 247 243 183 186 181 182 185 176 188 186
278 273 266 261 255 253 251 251 252 250 248 246 245 247 250 243 242 241 239 236 236 236 233 231 231 229 226 226 230 232 235 244 245 251 253 261 251 248 216 199 203 200 202 202 188
282 277 271 266 261 254 250 247 245 247 247 247 246 244 244 245 239 239 238 236 234 234 230 228 228 225 224 227 224 226 232 234 236 244 254 256 254 241 217 207 217 209 213 209 183
286 281 274 268 262 256 253 250 246 242 242 243 244 242 241 242 240 235 237 235 234 235 234 233 234 224 221 229 225 227 230 233 236 242 250 262 260 261 242 212 217 223 208 194 188
301 293 283 276 269 260 253 247 244 239 240 238 238 239 237 237 237 233 231 234 233 232 233 234 235 233 227 228 225 227 230 238 244 247 255 262 258 265 245 212 209 215 214 198 199
319 306 297 291 283 274 260 252 242 234 232 234 235 235 235 232 232 231 230 231 232 232 232 233 235 234 232 230 230 232 230 232 237 238 239 246 243 251 258 229 212 210 216 213 216
326 318 307 301 297 291 273 258 244 233 224 227 230 231 231 229 228 228 226 228 230 232 233 233 233 232 232 230 233 232 234 235 235 240 241 242 246 245 237 242 221 216 222 219 221
330 331 319 304 301 309 298 268 249 240 231 224 225 229 228 227 226 225 223 224 225 230 232 234 233 232 233 231 233 233 233 235 238 242 244 245 246 238 227 230 235 226 220 225 225
332 332 324 310 301 299 311 310 288 253 240 226 225 226 228 228 226 224 222 220 219 224 229 232 233 234 233 234 234 232 234 235 238 242 244 243 242 240 222 221 226 237 240 233 229
334 333 328 313 305 288 294 309 311 262 239 243 230 231 231 230 228 224 222 218 217 218 223 228 233 233 235 235 235 233 232 235 238 241 244 246 249 242 227 222 228 234 244 246 244
Height
5876 5875 5874 5873 5871 5870 5870 5869 5868 5867 5865 5864 5863 5863 5863 5863 5864 5864 5864 5867 5869 5871 5873 5875 5876 5878 5880 5880 5880 5884 5883 5882 5886 5885 5884 5883 5883 5884 5884 5884 5886 5887 5889 5891 5892
5874 5873 5872 5871 5870 5869 5868 5867 5867 5866 5865 5863 5862 5860 5861 5861 5861 5862 5865 5865 5867 5869 5871 5871 5874 5877 5879 5879 5882 5884 5884 5884 5884 5885 5884 5884 5883 5883 5883 5884 5886 5887 5888 5890 5892
5872 5871 5870 5869 5868 5867 5866 5866 5865 5865 5864 5863 5861 5859 5858 5859 5859 5859 5861 5864 5864 5866 5868 5868 5870 5877 5878 5878 5881 5884 5885 5885 5884 5883 5885 5883 5883 5884 5883 5885 5887 5888 5887 5888 5891
5869 5868 5867 5866 5865 5864 5864 5863 5863 5863 5862 5861 5860 5858 5857 5857 5858 5857 5858 5861 5862 5864 5866 5868 5870 5875 5877 5877 5878 5881 5884 5886 5884 5882 5881 5882 5883 5883 5883 5884 5884 5886 5887 5886 5889
5865 5864 5863 5863 5863 5862 5861 5861 5861 5860 5860 5859 5858 5857 5855 5855 5856 5855 5856 5857 5859 5862 5865 5867 5869 5871 5874 5876 5877 5877 5880 5883 5884 5883 5882 5883 5881 5881 5883 5884 5882 5883 5885 5888 5888
5861 5860 5859 5859 5858 5858 5857 5857 5858 5858 5857 5857 5857 5855 5853 5854 5853 5853 5853 5853 5855 5859 5862 5866 5867 5867 5870 5873 5876 5875 5878 5883 5885 5884 5882 5883 5884 5881 5882 5885 5883 5883 5884 5886 5888
5855 5854 5854 5854 5854 5853 5851 5853 5853 5853 5854 5853 5854 5853 5851 5852 5849 5850 5851 5851 5851 5854 5859 5862 5861 5865 5867 5869 5872 5873 5877 5880 5885 5885 5883 5883 5885 5884 5881 5884 5884 5883 5885 5886 5890
5850 5849 5848 5848 5848 5847 5846 5847 5848 5848 5849 5849 5850 5850 5847 5849 5847 5847 5849 5849 5848 5850 5853 5856 5857 5861 5863 5866 5868 5872 5874 5878 5883 5885 5886 5886 5886 5885 5883 5882 5885 5882 5885 5887 5890
5844 5843 5842 5841 5841 5840 5840 5839 5841 5842 5843 5844 5845 5845 5844 5845 5845 5844 5844 5845 5846 5847 5848 5851 5854 5858 5860 5863 5865 5869 5874 5876 5879 5882 5883 5887 5885 5884 5884 5882 5882 5884 5885 5887 5889
5837 5836 5834 5833 5834 5833 5833 5832 5833 5835 5836 5837 5838 5840 5840 5840 5841 5840 5840 5841 5843 5842 5844 5847 5849 5853 5857 5859 5863 5869 5872 5875 5877 5880 5880 5882 5882 5883 5883 5883 5881 5884 5885 5887 5889
5829 5828 5826 5825 5825 5825 5825 5825 5826 5828 5829 5830 5833 5832 5833 5834 5836 5836 5835 5837 5838 5840 5841 5842 5844 5848 5855 5858 5863 5866 5868 5871 5873 5875 5878 5880 5881 5881 5880 5881 5881 5884 5886 5886 5889
5818 5817 5818 5815 5815 5815 5816 5816 5816 5816 5822 5823 5823 5827 5824 5826 5829 5832 5832 5833 5835 5837 5837 5839 5842 5845 5848 5852 5856 5859 5862 5866 5871 5872 5873 5876 5879 5881 5878 5879 5880 5881 5884 5886 5888
5804 5805 5806 5805 5804 5804 5805 5806 5806 5806 5808 5819 5815 5818 5817 5816 5823 5824 5826 5828 5829 5831 5833 5835 5839 5838 5842 5846 5850 5855 5860 5864 5868 5867 5868 5871 5874 5878 5879 5877 5879 5879 5881 5884 5887
5788 5788 5790 5792 5793 5792 5792 5793 5794 5794 5797 5804 5806 5805 5809 5809 5813 5816 5819 5821 5822 5827 5827 5829 5833 5834 5837 5840 5845 5850 5855 5858 5861 5860 5862 5866 5868 5872 5875 5877 5876 5879 5880 5883 5886
5771 5771 5773 5775 5778 5777 5778 5778 5780 5782 5783 5786 5793 5795 5798 5800 5805 5808 5811 5810 5816 5820 5820 5828 5829 5830 5832 5839 5840 5847 5850 5854 5855 5854 5855 5858 5860 5868 5868 5873 5875 5878 5879 5881 5885
5752 5751 5754 5758 5758 5760 5760 5761 5765 5768 5768 5770 5775 5782 5786 5789 5792 5798 5798 5802 5808 5808 5810 5816 5819 5819 5827 5829 5834 5839 5841 5846 5847 5848 5842 5852 5856 5860 5866 5872 5873 5873 5877 5879 5883
5732 5732 5735 5736 5740 5740 5741 5744 5746 5749 5756 5757 5760 5766 5774 5776 5781 5784 5788 5792 5797 5798 5803 5811 5812 5816 5820 5824 5828 5830 5832 5834 5836 5835 5836 5848 5848 5859 5864 5867 5871 5869 5873 5878 5882
5709 5708 5713 5715 5718 5720 5721 5723 5726 5732 5735 5741 5745 5748 5757 5762 5768 5773 5778 5781 5785 5788 5795 5801 5804 5810 5817 5821 5826 5826 5826 5826 5826 5830 5836 5835 5838 5852 5859 5863 5868 5870 5869 5873 5876
5684 5682 5686 5688 5693 5695 5699 5702 5707 5711 5714 5721 5729 5733 5736 5748 5755 5760 5766 5771 5776 5780 5787 5790 5794 5801 5806 5812 5816 5819 5813 5830 5826 5823 5830 5830 5836 5842 5851 5857 5861 5868 5867 5869 5873
5653 5651 5654 5657 5661 5667 5672 5678 5681 5686 5693 5698 5706 5713 5719 5727 5740 5744 5748 5755 5761 5765 5771 5775 5782 5791 5797 5799 5803 5806 5817 5814 5813 5817 5819 5824 5829 5837 5846 5852 5856 5860 5863 5869 5871
5622 5618 5621 5624 5627 5634 5640 5647 5656 5659 5667 5676 5683 5691 5701 5708 5719 5726 5729 5739 5747 5753 5759 5765 5770 5781 5784 5785 5795 5800 5801 5804 5810 5812 5815 5818 5825 5834 5841 5848 5852 5856 5861 5866 5868
5601 5596 5593 5593 5597 5600 5607 5615 5624 5633 5642 5649 5656 5665 5678 5688 5697 5704 5713 5720 5729 5737 5745 5751 5756 5767 5776 5781 5787 5791 5795 5797 5799 5808 5814 5815 5819 5828 5835 5841 5847 5851 5855 5862 5864
5590 5582 5576 5575 5575 5576 5579 5586 5594 5603 5611 5620 5630 5640 5653 5666 5675 5681 5693 5704 5710 5719 5727 5735 5742 5753 5763 5768 5771 5776 5783 5787 5791 5799 5801 5807 5812 5826 5830 5836 5841 5844 5849 5856 5862
5583 5574 5569 5565 5562 5563 5564 5564 5570 5577 5586 5594 5602 5614 5626 5639 5650 5658 5673 5685 5692 5700 5708 5717 5726 5736 5744 5756 5759 5765 5772 5777 5783 5783 5795 5797 5809 5818 5826 5830 5834 5839 5843 5847 5851
5576 5569 5563 5559 5557 5554 5554 5553 5554 5558 5566 5574 5579 5587 5599 5612 5625 5636 5650 5663 5674 5682 5690 5699 5708 5719 5727 5739 5745 5753 5761 5768 5769 5780 5780 5795 5799 5812 5820 5824 5827 5831 5835 5837 5841
5571 5565 5561 5557 5554 5552 5550 5548 5548 5549 5553 5559 5563 5567 5574 5586 5600 5614 5626 5641 5652 5664 5672 5679 5690 5700 5712 5722 5732 5738 5748 5757 5762 5769 5772 5781 5789 5802 5812 5815 5818 5823 5826 5830 5837
5567 5562 5556 5553 5550 5548 5547 5547 5546 5546 5549 5551 5555 5558 5561 5569 5577 5589 5603 5619 5633 5643 5653 5662 5671 5683 5694 5705 5715 5723 5740 5745 5753 5759 5766 5772 5785 5794 5805 5810 5813 5816 5817 5821 5824